Regional Weather Roundup
Issued by NWS

Home | Current Version | Previous Version | Text Only | Print | Product List | Glossary On
Versions: 1 2 3 4 5 6 7 8 9 10 11 12 13 14 15 16 17 18 19 20 21 22 23 24 25 26 27 28 29 30 31 32 33 34 35 36 37 38 39 40 41 42 43 44 45 46 47 48 49 50
000
ASUS44 KFWD 210515
RWRTX
NORTH TEXAS HOURLY WEATHER ROUNDUP
NATIONAL WEATHER SERVICE FORT WORTH TX
1200 AM CDT THU SEP 21 2017

NOTE: "FAIR" INDICATES FEW OR NO CLOUDS BELOW 12,000 FEET WITH NO
SIGNIFICANT WEATHER AND/OR OBSTRUCTIONS TO VISIBILITY.

TXZ118-119-210600-
DALLAS/FORT WORTH METROPLEX

CITY           SKY/WX    TMP DP  RH WIND       PRES   REMARKS
DFW AIRPORT    CLOUDY    86  70  58 S13       29.88R HX  90
DALLAS LOVE    CLOUDY    86  70  58 SE16G23   29.90R HX  90
FTW MEACHAM    CLOUDY    86  72  62 SE13      29.88S HX  92
DAL-EXECUTIVE  CLOUDY    84  71  65 SE10G21   29.90S
FTW-ALLIANCE   CLOUDY    85  70  60 S10G20    29.88S
FTW-SPINKS     CLOUDY    84  69  61 S10       29.91S
ARLINGTON      CLOUDY    84  71  65 SE12      29.90R
GRAND PRAIRIE  CLOUDY    84  68  58 SE8       29.91S
ADDISON        PTCLDY    84  70  63 SE12      29.92R
MESQUITE       CLEAR     82  71  69 SE10      29.92R
LANCASTER      CLEAR     82  70  68 SE9       29.92S
$$

TXZ091>094-102>105-117-120-121-131>134-210600-
NORTH CENTRAL TEXAS

CITY           SKY/WX    TMP DP  RH WIND       PRES   REMARKS
SHRMAN/DENISON MOCLDY    82  70  68 SE10      29.92S
GAINESVILLE    CLOUDY    82  70  66 SE9       29.91S
BOWIE          CLOUDY    83  70  64 SE10G16   29.88S
BRIDGEPORT     CLOUDY    84  68  58 S9        29.90R
DECATUR        CLOUDY    84  70  62 SE12      29.89S
DENTON         CLOUDY    84  71  65 S10       29.89R
MCKINNEY       CLOUDY    82  72  71 SE9       29.91R
BONHAM         CLEAR     79  70  73 S8        29.92S
GREENVILLE     CLEAR     82  72  69 SE8       29.94R
ROCKWALL       CLEAR     82  71  70 S8G16     29.92R
TERRELL        CLEAR     81  71  71 SE7       29.93R
WAXAHACHIE     CLEAR     82  71  69 SE10      29.92S
CLEBURNE       CLOUDY    82  73  74 S10       29.92R
GRANBURY       CLOUDY    85  69  57 SE8       29.90S
$$

TXZ083>090-098>101-113>116-127>130-139>142-154-155-210600-
WESTERN NORTH TEXAS

CITY           SKY/WX    TMP DP  RH WIND       PRES   REMARKS
WICHITA FALLS  MOCLDY    82  70  66 SE9       29.84F
WF-KICKAPOO    CLOUDY    84  71  64 SE10      29.87F
VERNON         CLOUDY    83  64  54 SE12      29.85R
ABILENE        CLOUDY    83  67  58 S16G25    29.88S
ABILENE-DYESS  PTCLDY    83  68  60 SE17      29.86R
GRAHAM         CLOUDY    86  69  56 SE7       29.86R
BRECKENRIDGE   CLOUDY    84  69  60 S12G20    29.87R
CISCO          CLOUDY    84  70  61 S14       29.91R
EASTLAND       CLOUDY    81  71  69 S12       29.90R
RANGER         CLOUDY    82  69  64 S13G18    29.91R
MINERAL WELLS  CLOUDY    85  68  56 S15G23    29.87R
STEPHENVILLE   CLOUDY    82  68  62 S9G16     29.94R
COMANCHE       CLOUDY    82  69  64 S14       29.91S
BROWNWOOD      CLOUDY    82  68  61 SE13G20   29.90S
COLEMAN        CLOUDY    81  67  61 S6        29.91R
$$

TXZ143>147-156>162-174-175-210600-
CENTRAL TEXAS

CITY           SKY/WX    TMP DP  RH WIND       PRES   REMARKS
WACO           CLEAR     83  72  69 SE16      29.90S
WACO-MCGREGOR  CLEAR     82  73  74 S15       29.91S
HILLSBORO      CLEAR     83  71  67 SE13      29.91S
CORSICANA      CLEAR     81  74  79 S9        29.94R
MEXIA          CLEAR     79  73  79 S14G20    29.92R
HEARNE         CLEAR     79  76  90 SE7       29.94S
CAMERON        PTCLDY    80  74  80 S9        29.92S
TEMPLE         CLEAR     81  74  79 SE17      29.92R
KILLEEN        PTCLDY    81  72  75 SE15      29.91S
FORT HOOD      PTCLDY    80  71  75 S10       29.89R
GATESVILLE     CLEAR     82  72  69 SE9       29.93R
HAMILTON       CLOUDY    82  69  65 S10       29.93R
LAMPASAS       PTCLDY    81  73  76 S8        29.92S
$$

TXZ095>097-106>112-122>126-135>138-148>153-164>167-210600-
EAST TEXAS

CITY           SKY/WX    TMP DP  RH WIND       PRES   REMARKS
PARIS          CLEAR     77  71  82 SE7       29.95R
SULPHUR SPRNGS CLEAR     82  72  72 S10       29.96R
MOUNT PLEASANT CLEAR     77  72  84 SE6       29.97R
GILMER         CLEAR     77  72  84 S5        29.96R
MINEOLA        CLEAR     81  73  78 SE6       29.95R
TYLER          CLEAR     78  75  90 S8        29.95R
LONGVIEW       CLEAR     78  75  90 S9        29.96R
MARSHALL       CLEAR     74  70  88 S3        29.99R
ATHENS         CLEAR     79  72  78 S9        29.93S
PALESTINE      CLEAR     80  76  90 SE7       29.95F
JACKSONVILLE   CLEAR     77  75  96 S8        29.99R
HENDERSON      CLEAR     76  74  92 SE7       29.97S
CENTER         CLEAR     79  77  94 SE3       29.99S
NACOGDOCHES    CLEAR     77  76  96 SE8       29.98R
LUFKIN         PTCLDY    76  75  97 SE5       29.97R
$$

SUPPLEMENTAL OBSERVATIONS (NWS FORT WORTH AREA)

CITY           SKY/WX    TMP DP  RH WIND       PRES   REMARKS
DENISON DAM      N/A     82  70  65 SE7         N/A
CADDO GRASSLND   N/A     81  70  69 S5          N/A
PAT MAYSE LAKE   N/A     81  75  83 SE9         N/A
GREENVILLE       N/A     81  70  69 S7          N/A
CEDAR HILL       N/A     82  68  61 SE8G17      N/A
LBJ GRASSLAND    N/A     84  68  58 SE12        N/A
POSSUM KINGDOM   N/A     84  68  58 SE12G24     N/A
GRANBURY         N/A     84  68  58 SE9         N/A
COMANCHE         N/A     82  68  61 S14         N/A
MCGREGOR         N/A     82  72  69 S15         N/A
TEMPLE           N/A     81  72  74 S7          N/A
LAKE LIMESTONE   N/A     79  72  78 SE6         N/A
ATHENS           N/A     81  75  83 SE8         N/A
$$

SUPPLEMENTAL OBSERVATIONS (NWS NORMAN AREA)

CITY           SKY/WX    TMP DP  RH WIND       PRES   REMARKS
ODELL            N/A     79  69  72 SE10      29.85S
CROWELL          N/A     74  57  54 S3        29.86R
KNOX CITY        N/A     82  62  50 SE8       29.87R
SEYMOUR          N/A     80  65  60 SE9       29.86S
MILLERS CREEK    N/A     81  66  61 SE5         N/A
$$

SUPPLEMENTAL OBSERVATIONS (NWS SAN ANGELO AREA)

CITY           SKY/WX    TMP DP  RH WIND       PRES   REMARKS
WEINERT          N/A     80  63  55 S7        29.87S
HASKELL          N/A     83  59  44 SE8       29.87R
THROCKMORTON     N/A     80  67  64 SE6       29.89R
STAMFORD         N/A     82  63  52 SE7       29.87R
CLYDE            N/A     81  67  62 SE12      29.92R
HAMBY            N/A     84  64  51 S17         N/A
IVIE RESERVOIR   N/A     84  68  58 SE12        N/A
COLORADO BEND    N/A     81  68  65 S14G22      N/A
$$

SUPPLEMENTAL OBSERVATIONS (NWS SHREVEPORT AREA)

CITY           SKY/WX    TMP DP  RH WIND       PRES   REMARKS
CLARKSVILLE      N/A     77  70  78 SE5         N/A
TEXARKANA        N/A     72  68  88 CALM        N/A
LINDEN           N/A     75  68  78 S1          N/A
CADDO LAKE       N/A     75  72  88 S1          N/A
GILMER           N/A     79  73  83 S3          N/A
HENDERSON        N/A     77  73  88 S5          N/A
LUFKIN           N/A     77  75  94 MISG        N/A
N SABINE NF      N/A     73  72  94 MISG        N/A
S SABINE NF      N/A     73  72  94 W1          N/A
$$

SUPPLEMENTAL OBSERVATIONS ARE A COLLECTION OF AUTOMATED INSTRUMENTS
THAT ARE MAINTAINED BY A VARIETY OF FEDERAL AND STATE AGENCIES.
CERTAIN ELEMENTS...SUCH AS HUMIDITY VALUES AND SUSTAINED WIND
SPEEDS...MAY BE APPROXIMATED.





USA.gov is the U.S. government's official web portal to all federal, state and local government web resources and services.